Location: Sevilla
(37.3933°N, 5.9839°W)
Time: 04:19:26
(UTC+02:00)

Tiros 1 despin weight - Pass Details

Date: 25 June 2024
Orbit: 576 x 620 km, 48.2° (Epoch: 22 July)

Event Time Altitude Azimuth Distance (km) Brightness Sun altitude
Rises 20:29:43 0° 293° (WNW) 2,885 ? 13.4°
Reaches altitude 10° 20:32:23 10° 280° (W) 1,971 ? 12.9°
Maximum altitude 20:36:00 24° 227° (SW) 1,279 ? 12.2°
Drops below altitude 10° 20:39:34 10° 173° (S) 1,941 ? 11.5°
Sets 20:42:10 0° 159° (SSE) 2,832 ? 11.1°
